Find Kosmos-1732

NORAD ID: 16593 Int'l Des: 1986-015 Owner: VTS Country: SU operational
Also known as: COSMOS 1732 spacetrack, celestrak
LEOCIRCULAR

Current View

Loading 3D Globe...

About Kosmos-1732

Kosmos-1732 (NORAD 16593) is a satellite launched Feb 11, 1986 by VTS of SU. It operates in LEO, CIRCULAR orbit with a mass of 1557.00 kg.

Upcoming Passes

Passes for default location (London). Set your location on the main map for personalized predictions.

Altitude History

Loading altitude history...

Two-Line Element Set

1 16593U 86015A 26226.40902906 -.00000025 00000-0 -57295-4 0 9993
2 16593 73.6071 227.3338 0026949 340.9068 19.0963 12.41027867835044
Epoch: Aug 14, 2026 • Age: 9 hours

Current Status

Altitude 1526.3 km
Apogee / Perigee N/A
Velocity 7.10 km/s
Sub-Earth Point -65.64°S, 159.72°W
Launch Date Feb 11, 1986
Age 40.5 years
Type other

Technical Details

Classification Payload
Mass 1557.00 kg
Dry Mass 1557.00 kg
Total Mass 1557.00 kg
Length 5.80 m
Diameter 2.40 m
Span 17.80 m
Shape Cyl + 2 Pan + Ant
Manufacturer NPOPM
Bus Type KAUR-1 11F666
Phase Status In Orbit
Owner/State VTS/SU

Most Searched